Location: Chantarel
(45.1638°N, 1.7873°E)
Time: 06:19:46
(UTC+00:00)

Okean-O - Pass Details

Date: 03 March 2021
Orbit: 638 x 641 km, 98.2° (Epoch: 10 April)

Event Time Altitude Azimuth Distance (km) Brightness Sun altitude
Rises 18:21:19 0° 158° (SSE) 2,933 5.8 -7.5°
Reaches altitude 10° 18:23:31 10° 155° (SSE) 2,028 5.0 -7.9°
Maximum altitude 18:27:54 67° 74° (ENE) 698 2.6 -8.7°
Drops below altitude 10° 18:32:19 10° 352° (N) 2,043 5.3 -9.5°
Sets 18:34:32 0° 350° (N) 2,957 6.2 -9.9°
